Time,TemperatureF,DewpointF,PressureIn,WindDirection,WindDirectionDegrees,WindSpeedMPH,WindSpeedGustMPH,Humidity,HourlyPrecipIn,Conditions,Clouds,dailyrainin,SolarRadiationWatts/m^2,SoftwareType,DateUTC
2013-07-02 00:01:00,71.1,70.2,30.08,South,184,0.0,0.0,97,0.00,,,0.00,0.0,WUHU216DAVISWMX,2013-07-02 04:01:00,
2013-07-02 00:06:00,71.0,70.1,30.08,South,184,0.0,0.0,97,0.00,,,0.00,0.0,WUHU216DAVISWMX,2013-07-02 04:06:00,
2013-07-02 00:12:00,71.0,70.1,30.08,South,184,1.0,1.0,97,0.00,,,0.00,0.0,WUHU216DAVISWMX,2013-07-02 04:12:00,
2013-07-02 00:17:00,70.9,70.0,30.08,South,184,0.0,1.0,97,0.00,,,0.00,0.0,WUHU216DAVISWMX,2013-07-02 04:17:00,
2013-07-02 00:22:00,70.9,70.0,30.08,South,184,0.0,0.0,97,0.00,,,0.00,0.0,WUHU216DAVISWMX,2013-07-02 04:22:00,
2013-07-02 00:27:00,70.9,70.0,30.08,South,184,0.0,0.0,97,0.00,,,0.00,0.0,WUHU216DAVISWMX,2013-07-02 04:27:00,
2013-07-02 00:32:00,70.8,69.9,30.08,South,184,0.0,0.0,97,0.00,,,0.00,0.0,WUHU216DAVISWMX,2013-07-02 04:32:00,
2013-07-02 00:37:00,70.8,69.9,30.08,South,184,0.0,0.0,97,0.00,,,0.00,0.0,WUHU216DAVISWMX,2013-07-02 04:37:00,
2013-07-02 00:42:00,70.7,69.8,30.08,South,184,0.0,0.0,97,0.00,,,0.00,0.0,WUHU216DAVISWMX,2013-07-02 04:42:00,
2013-07-02 00:47:00,70.8,70.2,30.08,South,184,0.0,0.0,98,0.00,,,0.00,0.0,WUHU216DAVISWMX,2013-07-02 04:47:00,
2013-07-02 00:52:00,70.7,69.8,30.08,South,184,0.0,0.0,97,0.00,,,0.00,0.0,WUHU216DAVISWMX,2013-07-02 04:52:00,
2013-07-02 00:57:00,70.7,69.8,30.07,South,184,0.0,0.0,97,0.00,,,0.00,0.0,WUHU216DAVISWMX,2013-07-02 04:57:00,
2013-07-02 01:02:00,70.7,70.1,30.08,South,184,0.0,0.0,98,0.00,,,0.00,0.0,WUHU216DAVISWMX,2013-07-02 05:02:00,
2013-07-02 01:07:00,70.6,69.7,30.08,South,184,0.0,2.0,97,0.00,,,0.00,0.0,WUHU216DAVISWMX,2013-07-02 05:07:00,
2013-07-02 01:12:00,70.6,69.7,30.08,South,184,0.0,2.0,97,0.00,,,0.00,0.0,WUHU216DAVISWMX,2013-07-02 05:12:00,
2013-07-02 01:17:00,70.6,70.0,30.08,South,184,0.0,0.0,98,0.00,,,0.00,0.0,WUHU216DAVISWMX,2013-07-02 05:17:00,
2013-07-02 01:22:00,70.6,69.7,30.08,South,184,0.0,0.0,97,0.00,,,0.00,0.0,WUHU216DAVISWMX,2013-07-02 05:22:00,
2013-07-02 01:27:00,70.6,70.0,30.08,South,184,0.0,0.0,98,0.00,,,0.00,0.0,WUHU216DAVISWMX,2013-07-02 05:27:00,
2013-07-02 01:32:00,70.5,69.6,30.08,South,184,0.0,0.0,97,0.00,,,0.00,0.0,WUHU216DAVISWMX,2013-07-02 05:32:00,
2013-07-02 01:37:00,70.5,69.9,30.08,South,184,0.0,0.0,98,0.00,,,0.00,0.0,WUHU216DAVISWMX,2013-07-02 05:37:00,
2013-07-02 01:42:00,70.4,69.8,30.08,South,184,0.0,0.0,98,0.00,,,0.00,0.0,WUHU216DAVISWMX,2013-07-02 05:42:00,
2013-07-02 01:47:00,70.3,69.4,30.08,South,184,0.0,0.0,97,0.00,,,0.00,0.0,WUHU216DAVISWMX,2013-07-02 05:47:00,
2013-07-02 01:52:00,70.2,69.3,30.08,South,184,0.0,0.0,97,0.00,,,0.00,0.0,WUHU216DAVISWMX,2013-07-02 05:52:00,
2013-07-02 01:57:00,70.2,69.3,30.08,South,184,0.0,0.0,97,0.00,,,0.00,0.0,WUHU216DAVISWMX,2013-07-02 05:57:00,
2013-07-02 02:02:00,70.2,69.6,30.08,South,184,0.0,0.0,98,0.00,,,0.00,0.0,WUHU216DAVISWMX,2013-07-02 06:02:00,
2013-07-02 02:07:00,70.1,69.2,30.09,South,184,0.0,0.0,97,0.00,,,0.00,0.0,WUHU216DAVISWMX,2013-07-02 06:07:00,
2013-07-02 02:12:00,70.1,69.5,30.09,South,184,0.0,0.0,98,0.00,,,0.00,0.0,WUHU216DAVISWMX,2013-07-02 06:12:00,
2013-07-02 02:17:00,70.1,69.2,30.09,South,184,0.0,0.0,97,0.00,,,0.00,0.0,WUHU216DAVISWMX,2013-07-02 06:17:00,
2013-07-02 02:22:00,70.1,69.5,30.08,South,184,0.0,0.0,98,0.00,,,0.00,0.0,WUHU216DAVISWMX,2013-07-02 06:22:00,
2013-07-02 02:27:00,70.0,69.4,30.09,South,184,0.0,0.0,98,0.00,,,0.00,0.0,WUHU216DAVISWMX,2013-07-02 06:27:00,
2013-07-02 02:32:00,70.0,69.4,30.08,South,184,0.0,1.0,98,0.00,,,0.00,0.0,WUHU216DAVISWMX,2013-07-02 06:32:00,
2013-07-02 02:37:00,70.1,69.5,30.09,South,184,0.0,1.0,98,0.00,,,0.00,0.0,WUHU216DAVISWMX,2013-07-02 06:37:00,
2013-07-02 02:42:00,70.2,69.6,30.09,South,184,0.0,1.0,98,0.00,,,0.00,0.0,WUHU216DAVISWMX,2013-07-02 06:42:00,
2013-07-02 02:47:00,70.3,69.7,30.09,South,184,0.0,1.0,98,0.00,,,0.00,0.0,WUHU216DAVISWMX,2013-07-02 06:47:00,
2013-07-02 02:52:00,70.4,69.8,30.09,South,184,0.0,1.0,98,0.00,,,0.00,0.0,WUHU216DAVISWMX,2013-07-02 06:52:00,
2013-07-02 02:57:00,70.4,69.8,30.09,South,184,0.0,2.0,98,0.00,,,0.00,0.0,WUHU216DAVISWMX,2013-07-02 06:57:00,
2013-07-02 03:02:00,70.4,69.8,30.08,South,184,0.0,2.0,98,0.00,,,0.00,0.0,WUHU216DAVISWMX,2013-07-02 07:02:00,
2013-07-02 03:07:00,70.4,69.8,30.09,South,184,0.0,1.0,98,0.00,,,0.00,0.0,WUHU216DAVISWMX,2013-07-02 07:07:00,
2013-07-02 03:12:00,70.4,69.8,30.09,South,184,0.0,1.0,98,0.00,,,0.00,0.0,WUHU216DAVISWMX,2013-07-02 07:12:00,
2013-07-02 03:17:00,70.5,69.9,30.09,South,184,0.0,1.0,98,0.00,,,0.00,0.0,WUHU216DAVISWMX,2013-07-02 07:17:00,
2013-07-02 03:22:00,70.5,69.9,30.08,South,184,0.0,0.0,98,0.00,,,0.00,0.0,WUHU216DAVISWMX,2013-07-02 07:22:00,
2013-07-02 03:27:00,70.5,69.9,30.09,South,184,0.0,0.0,98,0.00,,,0.00,0.0,WUHU216DAVISWMX,2013-07-02 07:27:00,
2013-07-02 03:32:00,70.5,69.9,30.09,South,184,0.0,0.0,98,0.00,,,0.00,0.0,WUHU216DAVISWMX,2013-07-02 07:32:00,
2013-07-02 03:37:00,70.5,69.9,30.09,South,184,0.0,0.0,98,0.00,,,0.00,0.0,WUHU216DAVISWMX,2013-07-02 07:37:00,
2013-07-02 03:42:00,70.5,69.9,30.09,South,184,0.0,0.0,98,0.00,,,0.00,0.0,WUHU216DAVISWMX,2013-07-02 07:42:00,
2013-07-02 03:47:00,70.5,69.9,30.09,South,184,0.0,1.0,98,0.00,,,0.00,0.0,WUHU216DAVISWMX,2013-07-02 07:47:00,
2013-07-02 03:52:00,70.6,70.0,30.09,South,184,0.0,1.0,98,0.00,,,0.00,0.0,WUHU216DAVISWMX,2013-07-02 07:52:00,
2013-07-02 03:57:00,70.6,70.0,30.09,South,184,0.0,1.0,98,0.00,,,0.00,0.0,WUHU216DAVISWMX,2013-07-02 07:57:00,
2013-07-02 04:02:00,70.6,69.7,30.09,South,182,2.0,4.0,97,0.00,,,0.00,0.0,WUHU216DAVISWMX,2013-07-02 08:02:00,
2013-07-02 04:07:00,70.7,70.1,30.09,South,182,1.0,4.0,98,0.00,,,0.00,0.0,WUHU216DAVISWMX,2013-07-02 08:07:00,
2013-07-02 04:12:00,70.7,70.1,30.09,South,182,1.0,2.0,98,0.00,,,0.00,0.0,WUHU216DAVISWMX,2013-07-02 08:12:00,
2013-07-02 04:17:00,70.7,70.1,30.09,South,182,0.0,2.0,98,0.00,,,0.00,0.0,WUHU216DAVISWMX,2013-07-02 08:17:00,
2013-07-02 04:22:00,70.8,70.2,30.10,South,182,0.0,2.0,98,0.00,,,0.00,0.0,WUHU216DAVISWMX,2013-07-02 08:22:00,
2013-07-02 04:27:00,70.8,70.2,30.09,South,182,1.0,2.0,98,0.00,,,0.00,0.0,WUHU216DAVISWMX,2013-07-02 08:27:00,
2013-07-02 04:32:00,70.8,70.2,30.09,South,182,0.0,1.0,98,0.00,,,0.00,0.0,WUHU216DAVISWMX,2013-07-02 08:32:00,
2013-07-02 04:37:00,70.7,70.1,30.09,South,182,0.0,0.0,98,0.00,,,0.00,0.0,WUHU216DAVISWMX,2013-07-02 08:37:00,
2013-07-02 04:42:00,70.7,70.1,30.10,South,182,0.0,0.0,98,0.00,,,0.00,0.0,WUHU216DAVISWMX,2013-07-02 08:42:00,
2013-07-02 04:47:00,70.7,70.1,30.10,South,182,0.0,0.0,98,0.00,,,0.00,0.0,WUHU216DAVISWMX,2013-07-02 08:47:00,
2013-07-02 04:52:00,70.7,70.1,30.10,South,182,0.0,0.0,98,0.00,,,0.00,0.0,WUHU216DAVISWMX,2013-07-02 08:52:00,
2013-07-02 04:57:00,70.6,70.0,30.10,South,182,0.0,0.0,98,0.00,,,0.00,0.0,WUHU216DAVISWMX,2013-07-02 08:57:00,
2013-07-02 05:02:00,70.6,70.0,30.10,South,182,0.0,0.0,98,0.00,,,0.00,0.0,WUHU216DAVISWMX,2013-07-02 09:02:00,
2013-07-02 05:07:00,70.7,70.1,30.10,South,182,0.0,0.0,98,0.00,,,0.00,0.0,WUHU216DAVISWMX,2013-07-02 09:07:00,
2013-07-02 05:12:00,70.6,70.0,30.10,South,182,0.0,0.0,98,0.00,,,0.00,0.0,WUHU216DAVISWMX,2013-07-02 09:12:00,
2013-07-02 05:17:00,70.6,70.0,30.10,South,182,0.0,0.0,98,0.00,,,0.00,0.0,WUHU216DAVISWMX,2013-07-02 09:17:00,
2013-07-02 05:22:00,70.6,70.0,30.10,South,182,0.0,0.0,98,0.00,,,0.00,0.0,WUHU216DAVISWMX,2013-07-02 09:22:00,
2013-07-02 05:27:00,70.6,70.0,30.10,South,182,0.0,0.0,98,0.00,,,0.00,0.0,WUHU216DAVISWMX,2013-07-02 09:27:00,
2013-07-02 05:32:00,70.6,70.0,30.11,South,182,0.0,1.0,98,0.00,,,0.00,0.0,WUHU216DAVISWMX,2013-07-02 09:32:00,
2013-07-02 05:37:00,70.6,70.0,30.11,South,182,0.0,2.0,98,0.00,,,0.00,0.0,WUHU216DAVISWMX,2013-07-02 09:37:00,
2013-07-02 05:42:00,70.7,70.1,30.11,South,182,0.0,2.0,98,0.00,,,0.00,0.0,WUHU216DAVISWMX,2013-07-02 09:42:00,
2013-07-02 05:47:00,70.8,70.2,30.11,South,182,0.0,2.0,98,0.00,,,0.00,0.0,WUHU216DAVISWMX,2013-07-02 09:47:00,
2013-07-02 05:52:00,70.9,70.3,30.11,South,182,0.0,2.0,98,0.00,,,0.00,0.0,WUHU216DAVISWMX,2013-07-02 09:52:00,
2013-07-02 05:57:00,71.0,70.4,30.11,South,182,1.0,1.0,98,0.00,,,0.00,0.0,WUHU216DAVISWMX,2013-07-02 09:57:00,
2013-07-02 06:02:00,71.0,70.4,30.12,South,182,0.0,1.0,98,0.00,,,0.00,0.0,WUHU216DAVISWMX,2013-07-02 10:02:00,
2013-07-02 06:07:00,71.1,70.5,30.11,South,182,0.0,0.0,98,0.00,,,0.00,0.0,WUHU216DAVISWMX,2013-07-02 10:07:00,
2013-07-02 06:12:00,71.2,70.6,30.12,South,182,0.0,0.0,98,0.00,,,0.00,0.0,WUHU216DAVISWMX,2013-07-02 10:12:00,
2013-07-02 06:17:00,71.3,70.7,30.12,South,182,0.0,1.0,98,0.00,,,0.00,0.0,WUHU216DAVISWMX,2013-07-02 10:17:00,
2013-07-02 06:22:00,71.3,70.7,30.12,South,182,0.0,1.0,98,0.00,,,0.00,0.0,WUHU216DAVISWMX,2013-07-02 10:22:00,
2013-07-02 06:27:00,71.3,70.7,30.12,South,182,0.0,0.0,98,0.00,,,0.00,0.0,WUHU216DAVISWMX,2013-07-02 10:27:00,
2013-07-02 06:32:00,71.4,70.8,30.12,South,182,0.0,0.0,98,0.00,,,0.00,0.0,WUHU216DAVISWMX,2013-07-02 10:32:00,
2013-07-02 06:37:00,71.4,70.8,30.12,South,182,0.0,0.0,98,0.00,,,0.00,0.0,WUHU216DAVISWMX,2013-07-02 10:37:00,
2013-07-02 06:42:00,71.6,71.0,30.12,South,182,0.0,0.0,98,0.00,,,0.00,0.0,WUHU216DAVISWMX,2013-07-02 10:42:00,
2013-07-02 06:47:00,71.8,71.2,30.12,South,182,0.0,0.0,98,0.00,,,0.00,0.0,WUHU216DAVISWMX,2013-07-02 10:47:00,
2013-07-02 06:52:00,71.9,71.3,30.13,South,182,0.0,0.0,98,0.00,,,0.00,0.0,WUHU216DAVISWMX,2013-07-02 10:52:00,
2013-07-02 06:57:00,72.0,71.4,30.13,South,182,0.0,1.0,98,0.00,,,0.00,0.0,WUHU216DAVISWMX,2013-07-02 10:57:00,
2013-07-02 07:02:00,72.0,71.4,30.13,South,182,0.0,1.0,98,0.00,,,0.00,0.0,WUHU216DAVISWMX,2013-07-02 11:02:00,
2013-07-02 07:07:00,72.1,71.5,30.13,South,182,0.0,1.0,98,0.00,,,0.00,0.0,WUHU216DAVISWMX,2013-07-02 11:07:00,
2013-07-02 07:12:00,71.9,71.3,30.13,South,182,0.0,1.0,98,0.00,,,0.00,0.0,WUHU216DAVISWMX,2013-07-02 11:12:00,
2013-07-02 07:17:00,71.9,71.3,30.13,South,182,0.0,0.0,98,0.00,,,0.00,0.0,WUHU216DAVISWMX,2013-07-02 11:17:00,
2013-07-02 07:22:00,71.9,71.3,30.13,South,182,1.0,1.0,98,0.00,,,0.00,0.0,WUHU216DAVISWMX,2013-07-02 11:22:00,
2013-07-02 07:27:00,72.0,71.4,30.13,South,182,0.0,1.0,98,0.00,,,0.00,0.0,WUHU216DAVISWMX,2013-07-02 11:27:00,
2013-07-02 07:32:00,72.1,71.5,30.13,South,182,0.0,1.0,98,0.00,,,0.00,0.0,WUHU216DAVISWMX,2013-07-02 11:32:00,
2013-07-02 07:37:00,72.2,71.6,30.13,South,182,0.0,1.0,98,0.00,,,0.00,0.0,WUHU216DAVISWMX,2013-07-02 11:37:00,
2013-07-02 07:42:00,72.2,71.6,30.14,South,182,0.0,1.0,98,0.00,,,0.00,0.0,WUHU216DAVISWMX,2013-07-02 11:42:00,
2013-07-02 07:47:00,72.1,71.5,30.14,South,182,1.0,1.0,98,0.00,,,0.00,0.0,WUHU216DAVISWMX,2013-07-02 11:47:00,
2013-07-02 07:52:00,72.1,71.5,30.14,South,182,0.0,3.0,98,0.00,,,0.00,0.0,WUHU216DAVISWMX,2013-07-02 11:52:00,
2013-07-02 07:57:00,72.0,71.4,30.14,South,182,0.0,1.0,98,0.00,,,0.00,0.0,WUHU216DAVISWMX,2013-07-02 11:57:00,
2013-07-02 08:02:00,72.0,71.4,30.14,South,182,0.0,1.0,98,0.00,,,0.00,0.0,WUHU216DAVISWMX,2013-07-02 12:02:00,
2013-07-02 08:07:00,72.1,71.5,30.14,South,182,0.0,1.0,98,0.00,,,0.00,0.0,WUHU216DAVISWMX,2013-07-02 12:07:00,
2013-07-02 08:12:00,72.1,71.5,30.14,South,182,0.0,1.0,98,0.00,,,0.00,0.0,WUHU216DAVISWMX,2013-07-02 12:12:00,
2013-07-02 08:17:00,72.2,71.6,30.14,South,182,0.0,2.0,98,0.00,,,0.00,0.0,WUHU216DAVISWMX,2013-07-02 12:17:00,
2013-07-02 08:22:00,72.2,71.6,30.14,South,182,0.0,3.0,98,0.00,,,0.00,0.0,WUHU216DAVISWMX,2013-07-02 12:22:00,
2013-07-02 08:27:00,72.3,71.7,30.14,South,182,0.0,3.0,98,0.00,,,0.00,0.0,WUHU216DAVISWMX,2013-07-02 12:27:00,
2013-07-02 08:32:00,72.5,71.9,30.14,South,182,0.0,3.0,98,0.00,,,0.00,0.0,WUHU216DAVISWMX,2013-07-02 12:32:00,
2013-07-02 08:37:00,72.6,72.0,30.14,South,182,0.0,3.0,98,0.00,,,0.00,0.0,WUHU216DAVISWMX,2013-07-02 12:37:00,
2013-07-02 08:42:00,72.7,72.1,30.14,South,180,0.0,4.0,98,0.00,,,0.00,0.0,WUHU216DAVISWMX,2013-07-02 12:42:00,
2013-07-02 08:47:00,72.7,72.1,30.14,South,180,3.0,4.0,98,0.00,,,0.00,0.0,WUHU216DAVISWMX,2013-07-02 12:47:00,
2013-07-02 08:52:00,72.8,72.2,30.14,South,180,1.0,3.0,98,0.00,,,0.00,0.0,WUHU216DAVISWMX,2013-07-02 12:52:00,
2013-07-02 08:57:00,72.8,72.2,30.14,South,180,0.0,3.0,98,0.00,,,0.00,0.0,WUHU216DAVISWMX,2013-07-02 12:57:00,
2013-07-02 09:02:00,72.9,72.3,30.14,South,180,0.0,3.0,98,0.00,,,0.00,0.0,WUHU216DAVISWMX,2013-07-02 13:02:00,
2013-07-02 09:07:00,73.1,72.5,30.14,South,180,0.0,2.0,98,0.00,,,0.00,0.0,WUHU216DAVISWMX,2013-07-02 13:07:00,
2013-07-02 09:12:00,73.3,72.7,30.14,South,180,0.0,2.0,98,0.00,,,0.00,0.0,WUHU216DAVISWMX,2013-07-02 13:12:00,
2013-07-02 09:17:00,73.5,72.9,30.14,South,180,1.0,1.0,98,0.00,,,0.00,0.0,WUHU216DAVISWMX,2013-07-02 13:17:00,
2013-07-02 09:22:00,73.6,73.0,30.14,South,180,0.0,3.0,98,0.00,,,0.00,0.0,WUHU216DAVISWMX,2013-07-02 13:22:00,
2013-07-02 09:27:00,73.8,73.2,30.13,South,180,0.0,3.0,98,0.00,,,0.00,0.0,WUHU216DAVISWMX,2013-07-02 13:27:00,
2013-07-02 09:32:00,74.0,73.4,30.14,South,180,0.0,1.0,98,0.00,,,0.00,0.0,WUHU216DAVISWMX,2013-07-02 13:32:00,
2013-07-02 09:37:00,74.1,73.5,30.14,South,180,0.0,0.0,98,0.00,,,0.00,0.0,WUHU216DAVISWMX,2013-07-02 13:37:00,
2013-07-02 09:42:00,74.5,73.9,30.14,South,177,2.0,6.0,98,0.00,,,0.00,0.0,WUHU216DAVISWMX,2013-07-02 13:42:00,
2013-07-02 09:47:00,74.8,74.2,30.14,South,172,3.0,6.0,98,0.00,,,0.00,0.0,WUHU216DAVISWMX,2013-07-02 13:47:00,
2013-07-02 09:52:00,75.1,74.5,30.14,SSE,162,4.0,5.0,98,0.00,,,0.00,0.0,WUHU216DAVISWMX,2013-07-02 13:52:00,
2013-07-02 09:57:00,75.5,75.2,30.13,SSE,161,0.0,5.0,99,0.00,,,0.00,0.0,WUHU216DAVISWMX,2013-07-02 13:57:00,
2013-07-02 10:02:00,75.7,75.1,30.13,SSE,165,1.0,5.0,98,0.00,,,0.00,0.0,WUHU216DAVISWMX,2013-07-02 14:02:00,
2013-07-02 10:07:00,76.2,75.6,30.14,South,169,0.0,5.0,98,0.00,,,0.00,0.0,WUHU216DAVISWMX,2013-07-02 14:07:00,
2013-07-02 10:12:00,76.6,76.0,30.14,SSE,168,2.0,4.0,98,0.00,,,0.00,0.0,WUHU216DAVISWMX,2013-07-02 14:12:00,
2013-07-02 10:17:00,76.9,76.3,30.14,South,169,2.0,5.0,98,0.00,,,0.00,0.0,WUHU216DAVISWMX,2013-07-02 14:17:00,
2013-07-02 10:22:00,77.2,76.3,30.14,South,169,1.0,5.0,97,0.00,,,0.00,0.0,WUHU216DAVISWMX,2013-07-02 14:22:00,
2013-07-02 10:27:00,77.2,76.3,30.14,SE,146,1.0,5.0,97,0.00,,,0.00,0.0,WUHU216DAVISWMX,2013-07-02 14:27:00,
2013-07-02 10:32:00,77.5,76.2,30.14,SE,146,0.0,5.0,96,0.00,,,0.00,0.0,WUHU216DAVISWMX,2013-07-02 14:32:00,
2013-07-02 10:37:00,77.7,75.8,30.14,SSE,147,3.0,4.0,94,0.00,,,0.00,0.0,WUHU216DAVISWMX,2013-07-02 14:37:00,
2013-07-02 10:42:00,77.5,75.3,30.14,SSE,168,1.0,7.0,93,0.00,,,0.00,0.0,WUHU216DAVISWMX,2013-07-02 14:42:00,
2013-07-02 10:47:00,77.5,75.0,30.15,SSE,166,2.0,7.0,92,0.00,,,0.00,0.0,WUHU216DAVISWMX,2013-07-02 14:47:00,
2013-07-02 10:52:00,77.5,74.7,30.15,SSE,166,0.0,6.0,91,0.00,,,0.00,0.0,WUHU216DAVISWMX,2013-07-02 14:52:00,
2013-07-02 10:57:00,77.3,74.5,30.15,SSE,168,2.0,4.0,91,0.00,,,0.00,0.0,WUHU216DAVISWMX,2013-07-02 14:57:00,
2013-07-02 11:02:00,77.4,74.6,30.15,SSE,167,2.0,4.0,91,0.00,,,0.00,0.0,WUHU216DAVISWMX,2013-07-02 15:02:00,
2013-07-02 11:07:00,77.2,74.0,30.15,SSE,159,0.0,7.0,90,0.00,,,0.00,0.0,WUHU216DAVISWMX,2013-07-02 15:07:00,
2013-07-02 11:12:00,77.1,73.9,30.15,SSE,159,0.0,7.0,90,0.00,,,0.00,0.0,WUHU216DAVISWMX,2013-07-02 15:12:00,
2013-07-02 11:17:00,77.3,74.5,30.15,SSE,159,0.0,3.0,91,0.00,,,0.00,0.0,WUHU216DAVISWMX,2013-07-02 15:17:00,
2013-07-02 11:22:00,77.5,74.7,30.15,SSE,159,0.0,1.0,91,0.00,,,0.00,0.0,WUHU216DAVISWMX,2013-07-02 15:22:00,
2013-07-02 11:27:00,77.8,74.9,30.15,SSE,159,0.0,1.0,91,0.00,,,0.00,0.0,WUHU216DAVISWMX,2013-07-02 15:27:00,
2013-07-02 11:32:00,78.2,75.3,30.15,SSE,159,0.0,3.0,91,0.00,,,0.00,0.0,WUHU216DAVISWMX,2013-07-02 15:32:00,
2013-07-02 11:37:00,78.5,75.6,30.15,SSE,159,4.0,4.0,91,0.00,,,0.00,0.0,WUHU216DAVISWMX,2013-07-02 15:37:00,
2013-07-02 11:42:00,78.8,75.3,30.15,SSE,159,0.0,4.0,89,0.00,,,0.00,0.0,WUHU216DAVISWMX,2013-07-02 15:42:00,
2013-07-02 11:47:00,79.0,75.2,30.14,SSE,159,0.0,3.0,88,0.00,,,0.00,0.0,WUHU216DAVISWMX,2013-07-02 15:47:00,
2013-07-02 11:52:00,79.1,74.9,30.15,SSE,159,0.0,2.0,87,0.00,,,0.00,0.0,WUHU216DAVISWMX,2013-07-02 15:52:00,
2013-07-02 11:57:00,79.8,75.9,30.15,SSE,159,2.0,2.0,88,0.00,,,0.00,0.0,WUHU216DAVISWMX,2013-07-02 15:57:00,
2013-07-02 12:02:00,80.6,76.4,30.15,SSE,163,5.0,6.0,87,0.00,,,0.00,0.0,WUHU216DAVISWMX,2013-07-02 16:02:00,
2013-07-02 12:07:00,81.4,76.2,30.15,SSE,163,0.0,6.0,84,0.00,,,0.00,0.0,WUHU216DAVISWMX,2013-07-02 16:07:00,
2013-07-02 12:12:00,81.9,75.6,30.15,SSW,212,2.0,6.0,81,0.00,,,0.00,0.0,WUHU216DAVISWMX,2013-07-02 16:12:00,
2013-07-02 12:13:00,81.9,75.6,30.15,SSW,212,2.0,6.0,81,0.00,,,0.00,0.0,WUHU216DAVISWMX,2013-07-02 16:13:00,
2013-07-02 12:18:00,82.4,75.7,30.15,SSE,161,0.0,6.0,80,0.00,,,0.00,0.0,WUHU216DAVISWMX,2013-07-02 16:18:00,
2013-07-02 12:23:00,82.9,76.2,30.15,SSE,156,4.0,6.0,80,0.00,,,0.00,0.0,WUHU216DAVISWMX,2013-07-02 16:23:00,
2013-07-02 12:28:00,83.0,76.0,30.14,SSE,166,5.0,6.0,79,0.00,,,0.00,0.0,WUHU216DAVISWMX,2013-07-02 16:28:00,
2013-07-02 12:33:00,83.0,75.6,30.14,SSE,155,5.0,6.0,78,0.00,,,0.00,0.0,WUHU216DAVISWMX,2013-07-02 16:33:00,
2013-07-02 12:38:00,83.1,75.7,30.14,SSE,147,1.0,5.0,78,0.00,,,0.00,0.0,WUHU216DAVISWMX,2013-07-02 16:38:00,
2013-07-02 12:43:00,83.4,76.0,30.14,SSE,155,7.0,8.0,78,0.00,,,0.00,0.0,WUHU216DAVISWMX,2013-07-02 16:43:00,
2013-07-02 12:48:00,83.7,75.9,30.14,SSE,164,4.0,8.0,77,0.00,,,0.00,0.0,WUHU216DAVISWMX,2013-07-02 16:48:00,
2013-07-02 12:53:00,83.5,75.3,30.14,SSE,160,3.0,7.0,76,0.00,,,0.00,0.0,WUHU216DAVISWMX,2013-07-02 16:53:00,
2013-07-02 12:58:00,83.4,75.6,30.14,SSE,163,7.0,10.0,77,0.00,,,0.00,0.0,WUHU216DAVISWMX,2013-07-02 16:58:00,
2013-07-02 13:03:00,83.3,75.1,30.14,SSE,163,0.0,10.0,76,0.00,,,0.00,0.0,WUHU216DAVISWMX,2013-07-02 17:03:00,
2013-07-02 13:08:00,83.3,75.9,30.14,SSE,150,2.0,6.0,78,0.00,,,0.00,0.0,WUHU216DAVISWMX,2013-07-02 17:08:00,
2013-07-02 13:13:00,83.0,75.6,30.14,SSE,154,0.0,6.0,78,0.00,,,0.00,0.0,WUHU216DAVISWMX,2013-07-02 17:13:00,
2013-07-02 13:18:00,83.0,76.0,30.14,SSE,154,0.0,6.0,79,0.00,,,0.00,0.0,WUHU216DAVISWMX,2013-07-02 17:18:00,
2013-07-02 13:23:00,83.1,75.7,30.14,SSE,155,0.0,3.0,78,0.00,,,0.00,0.0,WUHU216DAVISWMX,2013-07-02 17:23:00,
2013-07-02 13:28:00,83.7,76.3,30.14,SSE,165,0.0,5.0,78,0.00,,,0.00,0.0,WUHU216DAVISWMX,2013-07-02 17:28:00,
2013-07-02 13:33:00,83.9,75.7,30.14,SSE,160,1.0,5.0,76,0.00,,,0.00,0.0,WUHU216DAVISWMX,2013-07-02 17:33:00,
2013-07-02 13:38:00,83.9,75.3,30.14,SSE,154,1.0,10.0,75,0.00,,,0.00,0.0,WUHU216DAVISWMX,2013-07-02 17:38:00,
2013-07-02 13:43:00,83.9,74.5,30.14,SSE,165,7.0,10.0,73,0.00,,,0.00,0.0,WUHU216DAVISWMX,2013-07-02 17:43:00,
2013-07-02 13:48:00,84.0,74.6,30.14,SSE,158,5.0,10.0,73,0.00,,,0.00,0.0,WUHU216DAVISWMX,2013-07-02 17:48:00,
2013-07-02 13:53:00,84.2,74.8,30.15,SSE,168,5.0,7.0,73,0.01,,,0.01,0.0,WUHU216DAVISWMX,2013-07-02 17:53:00,
2013-07-02 13:58:00,84.3,74.9,30.15,South,173,4.0,7.0,73,0.01,,,0.01,0.0,WUHU216DAVISWMX,2013-07-02 17:58:00,
2013-07-02 14:03:00,84.3,74.9,30.14,South,178,1.0,8.0,73,0.01,,,0.01,0.0,WUHU216DAVISWMX,2013-07-02 18:03:00,
2013-07-02 14:08:00,84.4,74.6,30.14,South,181,2.0,8.0,72,0.01,,,0.01,0.0,WUHU216DAVISWMX,2013-07-02 18:08:00,
2013-07-02 14:13:00,84.5,75.1,30.14,SSE,156,3.0,4.0,73,0.01,,,0.01,0.0,WUHU216DAVISWMX,2013-07-02 18:13:00,
2013-07-02 14:18:00,84.4,75.0,30.15,South,173,0.0,5.0,73,0.01,,,0.01,0.0,WUHU216DAVISWMX,2013-07-02 18:18:00,
2013-07-02 14:23:00,83.9,74.1,30.14,South,173,0.0,5.0,72,0.01,,,0.01,0.0,WUHU216DAVISWMX,2013-07-02 18:23:00,
2013-07-02 14:27:00,81.5,70.6,30.14,NNE,30,1.0,9.0,69,0.01,,,0.01,0.0,WUHU216DAVISWMX,2013-07-02 18:27:00,
2013-07-02 14:33:00,78.3,69.1,30.15,NE,55,1.0,9.0,73,0.01,,,0.01,0.0,WUHU216DAVISWMX,2013-07-02 18:33:00,
2013-07-02 14:38:00,76.1,68.9,30.15,North,2,0.0,6.0,78,0.01,,,0.01,0.0,WUHU216DAVISWMX,2013-07-02 18:38:00,
2013-07-02 14:43:00,74.6,68.5,30.15,NE,43,3.0,6.0,81,0.01,,,0.01,0.0,WUHU216DAVISWMX,2013-07-02 18:43:00,
2013-07-02 14:47:00,73.7,68.6,30.15,East,79,3.0,5.0,84,0.01,,,0.01,0.0,WUHU216DAVISWMX,2013-07-02 18:47:00,
2013-07-02 14:53:00,73.4,68.6,30.15,SE,144,0.0,5.0,85,0.00,,,0.01,0.0,WUHU216DAVISWMX,2013-07-02 18:53:00,
2013-07-02 14:58:00,73.4,69.0,30.15,ESE,122,0.0,7.0,86,0.00,,,0.01,0.0,WUHU216DAVISWMX,2013-07-02 18:58:00,
2013-07-02 15:03:00,73.4,69.0,30.14,ENE,58,4.0,7.0,86,0.00,,,0.01,0.0,WUHU216DAVISWMX,2013-07-02 19:03:00,
2013-07-02 15:08:00,73.5,69.1,30.14,ENE,70,0.0,5.0,86,0.00,,,0.01,0.0,WUHU216DAVISWMX,2013-07-02 19:08:00,
2013-07-02 15:13:00,73.7,69.3,30.14,NE,52,0.0,6.0,86,0.00,,,0.01,0.0,WUHU216DAVISWMX,2013-07-02 19:13:00,
2013-07-02 15:18:00,73.3,68.6,30.14,NNE,18,0.0,6.0,85,0.00,,,0.01,0.0,WUHU216DAVISWMX,2013-07-02 19:18:00,
2013-07-02 15:23:00,73.0,68.6,30.14,NNW,337,0.0,4.0,86,0.00,,,0.01,0.0,WUHU216DAVISWMX,2013-07-02 19:23:00,
2013-07-02 15:28:00,72.9,68.5,30.14,ESE,103,4.0,5.0,86,0.00,,,0.01,0.0,WUHU216DAVISWMX,2013-07-02 19:28:00,
2013-07-02 15:33:00,73.0,68.6,30.14,South,188,3.0,5.0,86,0.00,,,0.01,0.0,WUHU216DAVISWMX,2013-07-02 19:33:00,
2013-07-02 15:38:00,73.2,68.5,30.14,North,8,1.0,5.0,85,0.00,,,0.01,0.0,WUHU216DAVISWMX,2013-07-02 19:38:00,
2013-07-02 15:43:00,72.9,67.8,30.14,NNE,15,1.0,7.0,84,0.00,,,0.01,0.0,WUHU216DAVISWMX,2013-07-02 19:43:00,
2013-07-02 15:48:00,72.9,67.8,30.14,NE,54,3.0,7.0,84,0.00,,,0.01,0.0,WUHU216DAVISWMX,2013-07-02 19:48:00,
2013-07-02 15:53:00,72.8,67.7,30.14,North,6,2.0,5.0,84,0.00,,,0.01,0.0,WUHU216DAVISWMX,2013-07-02 19:53:00,
2013-07-02 15:58:00,72.6,67.5,30.14,NE,55,1.0,5.0,84,0.00,,,0.01,0.0,WUHU216DAVISWMX,2013-07-02 19:58:00,
2013-07-02 16:03:00,72.3,67.2,30.14,SE,139,1.0,6.0,84,0.00,,,0.01,0.0,WUHU216DAVISWMX,2013-07-02 20:03:00,
2013-07-02 16:08:00,72.0,66.9,30.14,East,98,2.0,8.0,84,0.00,,,0.01,0.0,WUHU216DAVISWMX,2013-07-02 20:08:00,
2013-07-02 16:13:00,71.8,66.4,30.14,SSE,161,2.0,8.0,83,0.00,,,0.01,0.0,WUHU216DAVISWMX,2013-07-02 20:13:00,
2013-07-02 16:18:00,71.5,66.1,30.14,NNE,20,1.0,5.0,83,0.00,,,0.01,0.0,WUHU216DAVISWMX,2013-07-02 20:18:00,
2013-07-02 16:23:00,71.6,66.2,30.14,NNE,12,3.0,5.0,83,0.00,,,0.01,0.0,WUHU216DAVISWMX,2013-07-02 20:23:00,
2013-07-02 16:28:00,71.5,66.1,30.14,SSE,159,3.0,8.0,83,0.00,,,0.01,0.0,WUHU216DAVISWMX,2013-07-02 20:28:00,
2013-07-02 16:33:00,71.3,65.9,30.14,ESE,121,1.0,9.0,83,0.00,,,0.01,0.0,WUHU216DAVISWMX,2013-07-02 20:33:00,
2013-07-02 16:38:00,71.0,66.0,30.14,ENE,67,0.0,9.0,84,0.00,,,0.01,0.0,WUHU216DAVISWMX,2013-07-02 20:38:00,
2013-07-02 16:43:00,70.7,65.7,30.14,SE,126,2.0,8.0,84,0.00,,,0.01,0.0,WUHU216DAVISWMX,2013-07-02 20:43:00,
2013-07-02 16:48:00,70.3,65.3,30.14,NE,54,0.0,7.0,84,0.00,,,0.01,0.0,WUHU216DAVISWMX,2013-07-02 20:48:00,
2013-07-02 16:53:00,70.3,65.6,30.14,East,98,0.0,7.0,85,0.00,,,0.01,0.0,WUHU216DAVISWMX,2013-07-02 20:53:00,
2013-07-02 16:58:00,70.0,65.0,30.14,ENE,78,1.0,6.0,84,0.00,,,0.01,0.0,WUHU216DAVISWMX,2013-07-02 20:58:00,
2013-07-02 17:03:00,69.8,65.1,30.14,SE,141,1.0,6.0,85,0.00,,,0.01,0.0,WUHU216DAVISWMX,2013-07-02 21:03:00,
2013-07-02 17:08:00,69.7,65.3,30.15,South,170,0.0,5.0,86,0.00,,,0.01,0.0,WUHU216DAVISWMX,2013-07-02 21:08:00,
2013-07-02 17:13:00,69.4,65.0,30.15,SE,143,3.0,6.0,86,0.00,,,0.01,0.0,WUHU216DAVISWMX,2013-07-02 21:13:00,
2013-07-02 17:18:00,69.1,64.7,30.15,SSE,159,0.0,6.0,86,0.00,,,0.01,0.0,WUHU216DAVISWMX,2013-07-02 21:18:00,
2013-07-02 17:23:00,68.7,64.4,30.16,North,0,1.0,4.0,86,0.00,,,0.01,0.0,WUHU216DAVISWMX,2013-07-02 21:23:00,
2013-07-02 17:28:00,68.0,64.0,30.16,North,3,0.0,9.0,87,0.00,,,0.01,0.0,WUHU216DAVISWMX,2013-07-02 21:28:00,
2013-07-02 17:33:00,67.7,64.0,30.16,North,4,1.0,9.0,88,0.00,,,0.01,0.0,WUHU216DAVISWMX,2013-07-02 21:33:00,
2013-07-02 17:38:00,67.4,63.4,30.16,NNE,23,1.0,5.0,87,0.00,,,0.01,0.0,WUHU216DAVISWMX,2013-07-02 21:38:00,
2013-07-02 17:43:00,67.0,63.0,30.16,ENE,69,4.0,5.0,87,0.00,,,0.01,0.0,WUHU216DAVISWMX,2013-07-02 21:43:00,
2013-07-02 17:48:00,66.6,62.6,30.17,North,0,0.0,5.0,87,0.00,,,0.01,0.0,WUHU216DAVISWMX,2013-07-02 21:48:00,
2013-07-02 17:53:00,66.3,62.6,30.17,NNE,14,2.0,9.0,88,0.00,,,0.01,0.0,WUHU216DAVISWMX,2013-07-02 21:53:00,
2013-07-02 17:58:00,66.1,63.4,30.16,ESE,121,4.0,9.0,91,0.00,,,0.01,0.0,WUHU216DAVISWMX,2013-07-02 21:58:00,
2013-07-02 18:03:00,65.8,63.1,30.17,NNW,345,2.0,6.0,91,0.00,,,0.01,0.0,WUHU216DAVISWMX,2013-07-02 22:03:00,
2013-07-02 18:08:00,65.4,63.0,30.17,NE,37,5.0,6.0,92,0.01,,,0.02,0.0,WUHU216DAVISWMX,2013-07-02 22:08:00,
2013-07-02 18:13:00,64.9,62.8,30.17,ESE,120,0.0,6.0,93,0.01,,,0.02,0.0,WUHU216DAVISWMX,2013-07-02 22:13:00,
2013-07-02 18:18:00,64.9,63.4,30.18,ESE,120,1.0,6.0,95,0.01,,,0.02,0.0,WUHU216DAVISWMX,2013-07-02 22:18:00,
2013-07-02 18:23:00,64.6,62.8,30.18,ESE,106,1.0,6.0,94,0.01,,,0.02,0.0,WUHU216DAVISWMX,2013-07-02 22:23:00,
2013-07-02 18:28:00,64.3,63.1,30.18,ESE,108,0.0,6.0,96,0.01,,,0.02,0.0,WUHU216DAVISWMX,2013-07-02 22:28:00,
2013-07-02 18:33:00,64.2,62.4,30.18,ESE,110,2.0,5.0,94,0.01,,,0.02,0.0,WUHU216DAVISWMX,2013-07-02 22:33:00,
2013-07-02 18:38:00,63.9,62.1,30.18,North,1,1.0,6.0,94,0.01,,,0.02,0.0,WUHU216DAVISWMX,2013-07-02 22:38:00,
2013-07-02 18:43:00,63.7,61.9,30.18,NE,50,0.0,6.0,94,0.01,,,0.02,0.0,WUHU216DAVISWMX,2013-07-02 22:43:00,
2013-07-02 18:48:00,63.5,61.7,30.19,ENE,59,0.0,5.0,94,0.03,,,0.04,0.0,WUHU216DAVISWMX,2013-07-02 22:48:00,
2013-07-02 18:53:00,63.6,61.8,30.18,NE,51,0.0,3.0,94,0.14,,,0.15,0.0,WUHU216DAVISWMX,2013-07-02 22:53:00,
2013-07-02 18:58:00,63.6,61.8,30.19,NE,51,0.0,3.0,94,0.16,,,0.17,0.0,WUHU216DAVISWMX,2013-07-02 22:58:00,
2013-07-02 19:03:00,63.8,62.3,30.19,NE,51,1.0,1.0,95,0.16,,,0.17,0.0,WUHU216DAVISWMX,2013-07-02 23:03:00,
2013-07-02 19:08:00,63.9,62.4,30.19,NE,51,1.0,1.0,95,0.15,,,0.17,0.0,WUHU216DAVISWMX,2013-07-02 23:08:00,
2013-07-02 19:13:00,63.6,62.1,30.19,SE,128,1.0,4.0,95,0.15,,,0.17,0.0,WUHU216DAVISWMX,2013-07-02 23:13:00,
2013-07-02 19:18:00,63.2,61.7,30.19,SSE,148,0.0,7.0,95,0.15,,,0.17,0.0,WUHU216DAVISWMX,2013-07-02 23:18:00,
2013-07-02 19:23:00,63.0,61.5,30.19,SSE,148,0.0,7.0,95,0.15,,,0.17,0.0,WUHU216DAVISWMX,2013-07-02 23:23:00,
2013-07-02 19:28:00,62.6,61.1,30.19,East,81,1.0,4.0,95,0.15,,,0.17,0.0,WUHU216DAVISWMX,2013-07-02 23:28:00,
2013-07-02 19:29:00,62.5,60.7,30.19,East,79,0.0,3.0,94,0.15,,,0.17,0.0,WUHU216DAVISWMX,2013-07-02 23:29:00,
2013-07-02 19:34:00,62.4,60.9,30.18,ENE,71,0.0,3.0,95,0.15,,,0.17,0.0,WUHU216DAVISWMX,2013-07-02 23:34:00,
2013-07-02 19:39:00,62.3,60.8,30.19,ENE,71,1.0,2.0,95,0.15,,,0.17,0.0,WUHU216DAVISWMX,2013-07-02 23:39:00,
2013-07-02 19:44:00,62.2,60.7,30.19,ENE,71,0.0,1.0,95,0.15,,,0.17,0.0,WUHU216DAVISWMX,2013-07-02 23:44:00,
2013-07-02 19:49:00,61.9,60.7,30.19,North,0,0.0,5.0,96,0.12,,,0.17,0.0,WUHU216DAVISWMX,2013-07-02 23:49:00,
2013-07-02 19:54:00,61.7,60.5,30.19,North,0,0.0,5.0,96,0.01,,,0.17,0.0,WUHU216DAVISWMX,2013-07-02 23:54:00,
2013-07-02 19:59:00,61.6,60.7,30.19,North,0,0.0,3.0,97,0.00,,,0.17,0.0,WUHU216DAVISWMX,2013-07-02 23:59:00,
2013-07-02 20:01:00,61.6,61.0,30.19,North,0,0.0,1.0,98,0.00,,,0.17,0.0,WUHU216DAVISWMX,2013-07-03 00:01:00,
2013-07-02 20:06:00,61.5,60.6,30.20,North,0,0.0,2.0,97,0.00,,,0.17,0.0,WUHU216DAVISWMX,2013-07-03 00:06:00,
2013-07-02 20:11:00,61.3,60.4,30.20,NNE,19,0.0,3.0,97,0.00,,,0.17,0.0,WUHU216DAVISWMX,2013-07-03 00:11:00,
2013-07-02 20:16:00,61.2,60.6,30.20,NNE,18,0.0,3.0,98,0.00,,,0.17,0.0,WUHU216DAVISWMX,2013-07-03 00:16:00,
2013-07-02 20:21:00,61.0,60.1,30.20,NNE,17,0.0,3.0,97,0.00,,,0.17,0.0,WUHU216DAVISWMX,2013-07-03 00:21:00,
2013-07-02 20:23:00,61.0,60.4,30.20,NNE,17,0.0,3.0,98,0.00,,,0.17,0.0,WUHU216DAVISWMX,2013-07-03 00:23:00,
2013-07-02 20:24:00,61.0,60.1,30.20,NNE,17,0.0,3.0,97,0.00,,,0.17,0.0,WUHU216DAVISWMX,2013-07-03 00:24:00,
2013-07-02 20:28:00,61.0,60.4,30.20,NNE,17,0.0,3.0,98,0.00,,,0.17,0.0,WUHU216DAVISWMX,2013-07-03 00:28:00,
2013-07-02 20:33:00,61.0,60.7,30.20,NNE,17,0.0,1.0,99,0.00,,,0.17,0.0,WUHU216DAVISWMX,2013-07-03 00:33:00,
2013-07-02 20:38:00,61.1,60.8,30.20,NNE,17,0.0,1.0,99,0.00,,,0.17,0.0,WUHU216DAVISWMX,2013-07-03 00:38:00,
2013-07-02 20:43:00,61.1,60.8,30.20,NNE,17,0.0,2.0,99,0.00,,,0.17,0.0,WUHU216DAVISWMX,2013-07-03 00:43:00,
2013-07-02 20:48:00,61.0,60.7,30.20,NNE,15,0.0,2.0,99,0.00,,,0.17,0.0,WUHU216DAVISWMX,2013-07-03 00:48:00,
2013-07-02 20:53:00,61.0,60.7,30.21,NNE,17,0.0,2.0,99,0.00,,,0.17,0.0,WUHU216DAVISWMX,2013-07-03 00:53:00,
2013-07-02 20:58:00,60.8,60.5,30.21,NE,39,0.0,4.0,99,0.00,,,0.17,0.0,WUHU216DAVISWMX,2013-07-03 00:58:00,
2013-07-02 21:00:00,60.8,60.2,30.21,NE,46,2.0,4.0,98,0.00,,,0.17,0.0,WUHU216DAVISWMX,2013-07-03 01:00:00,
2013-07-02 21:03:00,60.8,60.5,30.21,NE,47,0.0,4.0,99,0.00,,,0.17,0.0,WUHU216DAVISWMX,2013-07-03 01:03:00,
2013-07-02 21:08:00,60.8,60.5,30.22,NE,48,0.0,3.0,99,0.00,,,0.17,0.0,WUHU216DAVISWMX,2013-07-03 01:08:00,
2013-07-02 21:09:00,60.8,60.2,30.22,NE,48,0.0,2.0,98,0.00,,,0.17,0.0,WUHU216DAVISWMX,2013-07-03 01:09:00,
2013-07-02 21:14:00,60.9,60.6,30.22,NE,48,0.0,2.0,99,0.00,,,0.17,0.0,WUHU216DAVISWMX,2013-07-03 01:14:00,
2013-07-02 21:19:00,61.0,60.7,30.22,NE,48,0.0,1.0,99,0.00,,,0.17,0.0,WUHU216DAVISWMX,2013-07-03 01:19:00,
2013-07-02 21:24:00,61.0,60.7,30.22,NE,48,0.0,1.0,99,0.00,,,0.17,0.0,WUHU216DAVISWMX,2013-07-03 01:24:00,
2013-07-02 21:26:00,60.9,60.6,30.22,NE,48,0.0,1.0,99,0.00,,,0.17,0.0,WUHU216DAVISWMX,2013-07-03 01:26:00,
2013-07-02 21:31:00,60.7,60.4,30.22,NE,48,0.0,1.0,99,0.00,,,0.17,0.0,WUHU216DAVISWMX,2013-07-03 01:31:00,
2013-07-02 21:36:00,60.8,60.5,30.22,NE,49,0.0,1.0,99,0.00,,,0.17,0.0,WUHU216DAVISWMX,2013-07-03 01:36:00,
2013-07-02 21:41:00,60.7,60.4,30.22,NE,49,0.0,1.0,99,0.00,,,0.17,0.0,WUHU216DAVISWMX,2013-07-03 01:41:00,
2013-07-02 21:47:00,60.7,60.4,30.22,NE,49,0.0,2.0,99,0.00,,,0.17,0.0,WUHU216DAVISWMX,2013-07-03 01:47:00,
2013-07-02 21:49:00,60.7,60.4,30.22,NE,49,0.0,2.0,99,0.00,,,0.17,0.0,WUHU216DAVISWMX,2013-07-03 01:49:00,
2013-07-02 21:50:00,60.6,60.3,30.22,NE,49,0.0,2.0,99,0.00,,,0.17,0.0,WUHU216DAVISWMX,2013-07-03 01:50:00,
2013-07-02 21:55:00,60.6,60.3,30.22,NE,50,0.0,1.0,99,0.00,,,0.17,0.0,WUHU216DAVISWMX,2013-07-03 01:55:00,
2013-07-02 22:00:00,60.6,60.0,30.23,NE,50,0.0,1.0,98,0.00,,,0.17,0.0,WUHU216DAVISWMX,2013-07-03 02:00:00,
2013-07-02 22:05:00,60.5,59.9,30.23,NE,51,0.0,1.0,98,0.00,,,0.17,0.0,WUHU216DAVISWMX,2013-07-03 02:05:00,
2013-07-02 22:10:00,60.5,59.9,30.23,SE,133,1.0,5.0,98,0.00,,,0.17,0.0,WUHU216DAVISWMX,2013-07-03 02:10:00,
2013-07-02 22:15:00,60.3,60.0,30.22,ESE,120,0.0,5.0,99,0.00,,,0.17,0.0,WUHU216DAVISWMX,2013-07-03 02:15:00,
2013-07-02 22:20:00,60.2,59.6,30.23,ESE,117,0.0,5.0,98,0.00,,,0.17,0.0,WUHU216DAVISWMX,2013-07-03 02:20:00,
2013-07-02 22:26:00,60.0,59.4,30.23,ESE,114,1.0,2.0,98,0.00,,,0.17,0.0,WUHU216DAVISWMX,2013-07-03 02:26:00,
2013-07-02 22:31:00,60.1,59.5,30.22,ESE,114,0.0,2.0,98,0.00,,,0.17,0.0,WUHU216DAVISWMX,2013-07-03 02:31:00,
2013-07-02 22:32:00,60.1,59.5,30.22,ESE,114,0.0,2.0,98,0.00,,,0.17,0.0,WUHU216DAVISWMX,2013-07-03 02:32:00,
2013-07-02 22:37:00,60.1,59.2,30.22,ESE,114,1.0,1.0,97,0.00,,,0.17,0.0,WUHU216DAVISWMX,2013-07-03 02:37:00,
2013-07-02 22:43:00,60.0,59.1,30.22,NE,48,0.0,3.0,97,0.00,,,0.17,0.0,WUHU216DAVISWMX,2013-07-03 02:43:00,
2013-07-02 22:46:00,59.9,59.0,30.22,ENE,74,0.0,4.0,97,0.00,,,0.17,0.0,WUHU216DAVISWMX,2013-07-03 02:46:00,
2013-07-02 22:51:00,59.7,58.5,30.22,ENE,74,0.0,4.0,96,0.00,,,0.17,0.0,WUHU216DAVISWMX,2013-07-03 02:51:00,
2013-07-02 22:56:00,59.7,58.5,30.22,ENE,75,0.0,3.0,96,0.00,,,0.17,0.0,WUHU216DAVISWMX,2013-07-03 02:56:00,
2013-07-02 23:01:00,59.6,58.7,30.22,ENE,73,0.0,3.0,97,0.00,,,0.17,0.0,WUHU216DAVISWMX,2013-07-03 03:01:00,
2013-07-02 23:03:00,59.6,58.4,30.21,ENE,73,0.0,3.0,96,0.00,,,0.17,0.0,WUHU216DAVISWMX,2013-07-03 03:03:00,
2013-07-02 23:08:00,59.6,58.4,30.22,ENE,74,0.0,2.0,96,0.00,,,0.17,0.0,WUHU216DAVISWMX,2013-07-03 03:08:00,
2013-07-02 23:13:00,59.6,58.7,30.22,ENE,74,0.0,2.0,97,0.00,,,0.17,0.0,WUHU216DAVISWMX,2013-07-03 03:13:00,
2013-07-02 23:18:00,59.7,58.5,30.22,ENE,74,0.0,2.0,96,0.00,,,0.17,0.0,WUHU216DAVISWMX,2013-07-03 03:18:00,
2013-07-02 23:22:00,59.6,58.7,30.22,ENE,74,0.0,1.0,97,0.00,,,0.17,0.0,WUHU216DAVISWMX,2013-07-03 03:22:00,
2013-07-02 23:27:00,59.5,58.3,30.22,ENE,73,1.0,1.0,96,0.00,,,0.17,0.0,WUHU216DAVISWMX,2013-07-03 03:27:00,
2013-07-02 23:32:00,59.6,58.4,30.22,ENE,78,0.0,3.0,96,0.00,,,0.17,0.0,WUHU216DAVISWMX,2013-07-03 03:32:00,
2013-07-02 23:35:00,59.6,58.7,30.22,ENE,78,0.0,3.0,97,0.00,,,0.17,0.0,WUHU216DAVISWMX,2013-07-03 03:35:00,
2013-07-02 23:39:00,59.5,58.3,30.22,ENE,78,0.0,1.0,96,0.00,,,0.17,0.0,WUHU216DAVISWMX,2013-07-03 03:39:00,
2013-07-02 23:44:00,59.3,58.4,30.23,ENE,78,0.0,1.0,97,0.00,,,0.17,0.0,WUHU216DAVISWMX,2013-07-03 03:44:00,
2013-07-02 23:49:00,59.3,58.4,30.23,ENE,78,0.0,1.0,97,0.00,,,0.17,0.0,WUHU216DAVISWMX,2013-07-03 03:49:00,
2013-07-02 23:50:00,59.3,58.4,30.22,ENE,78,0.0,1.0,97,0.00,,,0.17,0.0,WUHU216DAVISWMX,2013-07-03 03:50:00,
2013-07-02 23:55:00,59.4,58.2,30.23,ENE,78,0.0,1.0,96,0.00,,,0.17,0.0,WUHU216DAVISWMX,2013-07-03 03:55:00,